GFSSW_sfc_dewp_057.txt.gz
Dewpoint
51 51 52 52 52 52 53 53 53 54 54 55 55 55 55 55 55 46 41 42 41 54 54 27 19 19 24 28 34 34 32 35 36 34 32 29 26 26 22 19 18 22 44 46 48
51 51 51 52 52 52 52 53 53 54 54 55 55 55 55 55 50 45 48 53 54 55 31 24 23 15 19 22 25 31 28 29 35 35 33 31 28 28 24 23 22 20 40 45 48
51 51 51 51 52 52 52 53 53 54 54 55 55 55 55 54 45 34 55 57 56 51 36 31 28 22 20 18 20 26 29 29 29 31 33 33 33 32 31 24 23 24 27 42 44
51 51 51 51 52 52 52 53 53 54 54 54 55 55 56 51 33 37 55 59 59 48 38 31 25 18 20 18 17 18 21 29 29 30 31 32 33 33 33 33 28 29 29 30 35
51 51 51 51 51 51 52 52 53 53 54 54 54 55 51 45 40 36 59 59 50 43 40 35 18 14 17 17 17 17 18 18 22 26 29 31 30 30 32 33 35 32 31 33 33
52 52 51 51 51 51 52 53 53 53 53 54 54 55 49 42 23 35 49 39 38 32 25 23 23 21 17 12 11 13 15 18 18 17 21 24 25 27 30 32 32 34 36 36 36
52 52 51 51 51 51 52 53 53 53 53 55 54 51 43 41 22 22 25 20 22 27 26 24 24 23 22 20 18 16 14 14 17 19 18 18 19 21 24 31 33 33 33 35 38
51 52 52 51 51 51 52 53 53 53 53 55 55 48 43 28 22 21 16 17 20 19 19 20 25 24 22 21 17 14 14 10 16 19 19 19 17 19 23 24 27 34 33 34 37
51 51 52 51 51 51 52 52 52 53 54 54 49 46 39 37 23 18 17 18 19 18 19 17 21 22 22 19 15 15 11 10 9 8 10 17 17 18 20 21 25 25 28 35 35
51 51 50 50 51 52 52 52 52 53 50 47 44 40 35 26 22 19 18 20 19 19 22 22 21 19 20 20 15 11 9 7 6 6 6 5 5 10 18 18 19 26 29 35 36
52 52 51 50 52 52 50 43 39 43 44 40 37 36 21 22 22 18 21 21 20 20 19 17 13 12 14 15 15 15 15 15 14 14 13 12 12 13 14 13 17 18 21 24 36
52 52 52 52 52 52 49 41 30 30 29 30 28 23 22 22 18 19 22 21 18 16 15 14 12 13 11 11 11 11 13 14 16 16 13 13 12 13 13 15 17 16 21 22 31
52 52 52 52 52 49 41 35 31 34 30 28 26 20 19 17 18 18 21 20 16 13 13 14 13 12 10 11 10 9 9 11 13 14 12 14 12 12 13 15 16 19 21 26 24
52 51 51 51 47 41 36 33 34 35 28 25 17 17 16 16 18 19 20 18 16 13 15 13 12 12 14 16 14 16 17 16 13 12 11 15 11 12 13 13 16 17 20 26 29
52 51 51 50 45 37 32 35 39 37 27 19 15 22 16 16 18 19 18 17 15 15 15 13 12 13 15 16 21 20 22 20 19 18 16 13 13 13 16 14 13 15 16 20 26
52 51 50 48 46 41 35 35 39 33 26 14 14 15 15 17 17 18 17 19 17 15 15 13 14 20 23 24 26 25 22 23 23 21 16 15 14 13 14 14 15 15 16 17 21
51 51 49 44 42 39 36 37 31 29 20 16 16 17 17 17 17 16 19 15 16 14 14 14 12 15 29 27 25 23 24 21 20 17 16 16 17 17 18 15 17 19 18 17 17
50 49 48 43 41 40 38 34 29 26 19 19 17 18 17 16 17 15 18 16 20 24 22 21 18 25 26 26 24 23 25 24 15 11 11 19 18 16 24 22 21 23 24 22 17
49 47 47 47 45 42 36 31 32 21 18 17 19 18 17 18 17 17 17 16 22 26 25 25 23 26 25 19 18 18 22 25 24 18 19 18 20 22 21 27 36 37 37 36 31
46 45 44 41 43 40 35 34 30 19 17 17 18 22 20 19 18 19 19 22 25 27 28 29 25 23 21 24 21 25 25 22 26 21 18 19 18 21 31 35 36 36 36 39 40
46 43 42 39 41 38 35 33 27 20 19 23 24 24 23 21 21 21 20 21 27 26 27 27 27 26 25 23 26 29 27 30 31 29 21 19 20 33 36 37 37 36 36 41 43
44 37 40 39 35 39 34 27 30 24 24 24 27 26 24 25 23 22 22 26 29 31 29 33 31 26 25 23 27 26 32 33 29 25 31 30 26 35 35 35 37 37 38 44 45
42 40 43 40 35 31 31 27 27 23 26 25 26 26 27 25 27 27 26 29 30 31 33 33 29 24 21 22 32 26 25 26 29 30 26 24 22 31 35 35 37 39 41 45 46
43 38 39 40 36 31 29 28 27 28 25 23 26 26 27 27 26 27 26 27 27 29 36 38 31 29 24 24 26 26 26 22 27 27 24 23 25 27 35 36 37 40 44 45 46
41 39 36 33 34 32 31 31 28 26 27 29 29 27 24 27 26 25 26 26 28 35 33 36 33 32 30 29 28 26 24 22 20 22 22 27 23 29 34 36 38 41 43 42 39
39 35 35 33 35 32 33 31 26 26 27 27 28 27 28 27 27 27 29 29 30 31 31 36 34 33 31 29 26 25 26 24 24 27 27 33 27 31 32 36 36 37 37 35 30
40 40 37 36 33 28 27 26 26 29 29 28 28 27 27 28 29 30 32 31 31 31 30 33 33 29 26 26 29 25 32 33 33 32 31 33 34 35 35 36 38 34 34 35 43

GFSSW_sfc_dewp_060.txt.gz
Dewpoint
51 51 52 52 52 52 52 53 53 54 54 55 55 55 55 55 55 48 41 44 48 54 55 37 25 18 20 28 34 35 31 36 39 38 36 37 35 35 32 31 28 21 44 46 48
51 51 51 51 52 52 52 53 53 54 54 55 55 55 55 55 50 47 48 55 55 54 33 28 23 25 18 22 25 32 30 30 36 38 36 35 34 34 34 33 33 27 31 45 47
51 51 51 51 52 52 52 52 53 54 54 54 54 55 55 55 46 41 55 58 57 55 39 33 30 27 19 17 21 24 27 30 30 31 32 31 31 33 32 32 34 34 27 28 32
52 52 52 52 52 52 52 52 53 53 54 54 54 54 55 52 31 36 57 59 59 49 39 34 29 23 21 19 19 17 18 25 29 30 29 27 28 29 30 32 33 35 33 32 36
51 52 52 52 52 52 52 52 53 53 53 54 54 54 51 46 44 39 59 59 55 46 40 36 31 19 17 18 18 18 17 18 18 19 26 30 30 29 28 30 31 33 34 36 37
51 51 51 51 52 52 52 52 53 53 53 54 55 55 50 41 39 34 50 50 46 41 34 36 24 23 21 19 18 14 16 15 15 17 19 18 22 23 24 27 28 29 32 35 37
51 51 50 50 51 52 53 53 53 52 53 53 54 51 44 34 39 30 42 38 28 34 26 25 25 23 24 20 21 18 14 15 15 17 18 20 18 19 21 23 23 25 28 32 37
52 52 52 51 50 51 52 53 52 52 53 53 54 49 39 43 39 23 19 16 20 24 24 21 24 23 22 22 19 16 16 12 14 13 16 19 16 19 21 21 21 24 25 26 35
53 53 52 51 51 51 51 52 52 53 53 54 49 46 41 44 25 19 19 17 20 19 19 18 23 21 23 20 18 16 12 12 11 11 10 14 11 16 20 20 20 19 24 28 28
53 53 52 52 51 51 51 52 51 52 51 48 45 41 37 30 23 20 20 19 20 19 19 25 20 19 19 19 16 15 12 11 12 13 15 12 13 15 16 16 17 18 19 22 25
53 53 52 52 52 51 49 43 30 35 42 38 40 39 36 25 25 20 21 22 22 20 17 18 12 11 16 19 19 19 16 14 16 16 16 14 15 15 16 16 15 16 18 20 23
53 53 53 52 52 52 47 39 31 29 28 32 31 31 30 25 21 21 23 20 21 16 16 15 13 15 14 13 13 12 11 11 15 15 13 14 13 12 15 16 15 16 18 21 22
52 52 52 52 51 48 40 39 36 32 28 29 29 28 27 20 19 21 21 18 17 15 14 15 14 15 12 13 16 15 15 20 19 20 17 13 12 13 14 16 16 17 19 22 24
52 52 51 52 43 41 36 37 36 34 29 30 18 18 16 17 19 20 21 17 17 13 14 14 14 13 14 16 19 19 23 23 22 20 15 17 13 15 15 17 17 16 15 17 19
51 52 52 51 42 36 35 36 39 37 21 24 18 20 18 15 20 21 18 18 15 14 15 14 14 13 14 22 25 21 26 23 23 21 20 18 15 14 16 15 16 16 16 17 17
51 51 51 47 45 41 41 36 38 31 21 16 17 17 18 17 18 19 18 22 19 16 16 15 16 20 24 26 27 25 23 23 24 21 18 15 16 12 14 15 17 19 18 19 26
50 51 50 46 37 41 39 37 30 27 25 18 17 19 19 19 19 21 17 15 16 16 16 17 16 27 28 24 24 23 24 18 16 17 16 17 15 14 19 20 21 29 36 37 37
49 49 48 44 41 44 37 33 27 25 18 20 18 19 19 20 18 19 18 17 24 25 24 22 18 25 26 25 22 21 22 20 17 14 15 20 17 18 22 25 37 36 36 36 36
48 45 46 46 46 39 36 29 28 20 17 18 18 21 22 22 20 21 21 23 26 26 23 24 24 26 25 25 22 20 22 23 23 21 21 19 19 22 33 35 36 35 36 35 35
43 44 44 43 39 39 34 33 31 23 20 22 21 25 23 22 21 22 21 26 28 29 28 27 25 24 25 25 26 25 26 22 25 18 17 20 19 19 32 33 35 33 35 34 34
43 40 42 37 41 39 31 34 31 26 25 25 25 24 25 23 23 22 22 23 30 30 29 31 27 25 27 24 24 25 25 29 28 27 19 21 22 32 34 35 35 34 35 36 37
41 34 41 37 32 37 32 29 32 28 29 27 28 27 26 26 23 23 23 26 31 31 30 32 30 27 25 26 27 25 28 30 24 22 29 27 23 28 33 35 35 35 38 40 43
40 40 41 39 30 29 30 28 28 28 27 25 25 26 26 25 26 28 27 28 29 30 31 31 28 25 22 22 29 26 28 28 32 31 27 24 22 29 36 34 35 39 41 42 43
40 35 36 37 34 29 29 29 28 32 30 28 28 28 27 25 27 29 27 28 29 31 38 38 31 28 23 22 25 27 28 28 29 27 23 23 22 28 33 34 35 39 41 42 44
38 35 34 30 32 32 32 30 28 28 28 28 27 29 28 25 26 26 28 30 31 33 34 34 31 32 32 32 31 30 29 28 27 27 26 25 29 31 35 36 36 41 43 40 42
35 34 35 33 33 31 32 28 27 28 28 27 27 29 27 26 27 26 27 29 31 30 31 35 28 34 31 30 29 26 26 30 28 32 32 33 31 36 37 37 38 38 39 40 38
39 39 36 32 32 29 27 29 30 30 29 27 28 28 27 29 31 29 29 31 31 30 29 31 30 28 26 29 28 26 32 33 32 35 36 32 34 35 35 37 37 37 38 42 42

GFSSW_sfc_dewp_063.txt.gz
Dewpoint
51 51 51 51 52 52 52 52 53 53 54 54 54 55 55 55 55 48 39 35 48 55 54 38 29 21 20 24 34 34 32 36 36 33 33 36 36 37 36 34 35 33 33 41 58
52 52 52 52 52 52 52 52 53 53 54 54 54 54 55 55 51 47 48 50 56 54 32 28 22 26 16 22 26 32 31 31 37 38 37 36 35 34 33 32 33 35 36 35 53
52 52 52 52 52 52 52 52 52 53 53 54 54 54 54 55 46 38 54 55 57 54 39 33 30 28 19 18 24 25 28 32 32 32 32 31 31 30 29 28 34 34 35 34 41
51 51 52 51 51 52 52 52 52 52 53 53 53 54 55 51 28 36 56 59 57 50 40 34 29 23 20 19 19 16 21 24 27 29 29 28 29 28 28 28 31 34 34 35 32
51 50 50 50 51 51 51 52 52 52 53 53 54 55 51 45 44 44 58 58 53 48 40 36 31 23 16 17 17 18 19 18 18 18 21 27 26 25 24 25 28 29 31 34 37
52 52 52 52 51 51 50 50 52 52 52 53 54 55 48 34 39 43 49 50 52 46 36 37 25 22 20 20 19 18 18 17 16 15 16 16 17 19 20 23 22 24 27 31 36
52 52 52 52 51 51 51 52 52 52 53 53 54 52 44 23 40 42 46 43 40 40 33 27 24 23 23 20 21 20 14 15 14 15 16 19 17 18 20 22 21 21 22 26 32
51 52 52 51 51 51 52 52 52 53 53 53 54 50 35 39 43 33 34 30 21 34 29 25 23 23 22 21 20 17 14 10 12 16 13 18 15 20 20 21 23 21 21 22 26
52 51 51 51 51 51 51 52 52 52 53 53 49 45 40 45 28 27 17 17 18 20 20 18 24 23 21 19 19 17 11 13 12 13 12 16 12 14 17 16 17 19 20 18 19
51 52 51 52 51 51 51 51 51 51 51 51 46 40 36 34 26 21 19 19 20 20 20 21 20 18 19 19 15 15 15 14 14 15 15 14 14 17 17 17 17 18 18 19 20
52 53 51 51 51 52 49 39 29 29 43 32 39 39 40 35 25 19 21 22 23 18 15 18 13 11 13 18 18 19 18 15 15 16 16 14 14 15 17 16 16 17 19 20 22
52 52 51 52 52 52 46 37 35 29 28 30 32 36 37 34 26 20 22 18 20 16 16 15 12 14 15 15 15 14 12 17 17 21 19 17 16 16 16 16 16 16 18 20 21
51 52 51 52 52 45 37 36 37 33 27 28 30 30 29 28 22 20 21 21 18 14 14 14 14 16 15 14 17 19 20 22 22 23 20 18 14 15 19 19 17 19 19 19 20
51 51 50 51 40 39 35 37 37 34 29 30 23 24 22 17 19 21 22 17 16 12 15 14 15 14 14 14 21 16 25 23 21 21 17 18 13 15 17 18 19 18 17 19 19
50 51 50 50 41 39 37 41 38 37 17 27 18 20 18 14 19 19 21 17 14 14 14 13 14 13 14 21 24 19 25 22 23 20 19 19 17 11 13 13 15 18 19 21 30
50 50 50 48 44 43 42 38 37 27 18 18 18 19 19 18 18 18 19 19 20 16 17 14 17 18 23 25 26 25 22 21 23 21 18 18 16 14 13 15 18 21 26 36 37
50 50 49 46 35 40 41 37 29 22 23 18 17 18 20 20 21 21 19 21 18 17 17 19 19 27 26 23 23 22 22 16 14 14 16 17 18 16 19 20 23 32 35 35 36
49 49 48 45 41 43 37 32 26 25 18 21 17 18 21 22 21 23 21 22 26 23 23 21 16 23 26 24 22 22 20 17 14 15 12 17 17 19 22 32 35 36 36 36 35
48 44 45 45 46 38 35 29 23 20 19 19 20 23 23 23 21 22 22 25 26 26 23 22 23 26 25 25 22 21 20 22 20 21 19 19 19 22 22 32 33 34 35 35 35
42 43 43 44 39 39 33 32 32 30 22 24 23 25 23 23 22 22 22 26 28 29 27 26 24 26 27 26 25 21 23 22 23 18 17 18 19 19 22 22 30 33 33 32 36
43 39 41 37 41 38 30 32 33 28 29 24 23 23 24 23 23 22 21 23 29 30 29 30 26 25 27 24 22 23 23 27 26 23 17 17 21 27 27 30 33 33 34 35 39
40 32 40 38 34 34 30 30 33 27 30 25 26 26 24 25 23 23 23 25 31 31 28 31 29 26 26 26 26 25 26 27 23 19 26 28 22 26 26 31 34 34 34 38 41
40 39 43 37 28 27 28 28 28 29 29 27 25 27 27 25 23 26 29 30 28 30 31 31 27 25 20 20 26 25 30 30 30 29 26 24 20 26 28 29 33 35 38 41 43
38 33 34 36 33 29 30 29 29 31 31 29 28 29 27 26 25 26 30 29 31 31 36 36 28 27 23 21 24 25 27 28 29 29 26 25 25 27 30 35 37 38 39 44 43
36 33 33 27 28 31 32 30 28 26 28 28 26 28 27 25 26 26 27 27 29 33 33 34 29 31 30 29 29 30 30 30 29 30 28 27 27 28 34 36 37 39 41 41 44
34 33 35 32 33 32 31 28 28 30 29 27 26 28 28 26 26 26 27 27 29 30 30 33 27 31 30 31 32 30 28 27 27 30 33 31 32 34 36 36 36 37 38 39 44
39 38 35 31 31 28 26 30 30 32 29 30 28 27 27 28 33 32 32 32 30 30 29 31 29 26 24 26 28 26 26 30 33 34 34 30 31 35 35 36 35 36 36 37 37

GFSSW_sfc_dewp_069.txt.gz
Dewpoint
50 50 50 50 50 50 50 50 51 52 52 53 53 54 54 54 53 49 41 32 48 53 52 30 23 23 19 23 34 39 31 26 27 26 28 35 34 37 36 34 33 34 34 33 36
53 52 52 52 52 50 51 50 51 52 52 53 53 53 53 53 50 47 48 48 50 53 26 21 22 20 16 21 28 30 26 25 32 32 29 33 33 34 32 32 31 32 32 32 31
53 52 52 52 52 51 50 51 50 50 52 52 53 53 53 53 43 27 53 54 53 52 35 29 27 26 15 22 24 28 23 29 30 33 32 32 31 31 30 29 30 29 29 27 29
52 52 52 52 52 51 50 51 51 51 51 52 53 53 53 51 20 33 57 55 55 43 37 29 27 23 19 15 20 21 23 26 26 29 27 28 27 25 26 28 26 25 25 29 28
51 52 51 51 51 51 51 50 50 51 51 52 53 53 50 39 36 42 58 55 48 41 35 33 26 21 18 19 18 19 18 18 19 18 18 19 20 21 21 23 22 23 24 25 28
51 51 51 52 51 51 51 50 50 50 51 52 53 53 44 26 35 43 51 49 44 40 36 35 26 25 21 21 19 18 18 17 16 16 17 16 17 18 20 21 21 22 24 25 28
52 52 51 51 51 51 51 51 52 51 52 52 53 52 41 22 35 42 46 42 46 41 30 34 31 22 23 19 21 20 17 16 15 15 15 16 15 15 22 23 22 22 22 21 23
50 50 50 51 51 51 51 51 51 52 52 52 53 51 34 28 37 41 40 35 39 43 37 31 27 23 22 22 21 17 16 9 12 15 14 15 12 18 20 20 20 21 20 21 24
51 50 50 50 51 51 51 52 52 52 53 53 51 45 33 44 34 25 28 17 18 25 32 24 24 23 22 19 18 18 10 13 13 19 18 16 14 17 20 21 23 25 22 20 23
50 50 50 50 51 51 52 50 52 54 52 51 47 41 35 32 35 31 22 18 17 19 20 21 22 20 20 17 10 12 12 13 13 15 20 15 16 18 19 20 24 23 24 23 24
49 50 50 50 50 51 49 41 34 32 46 31 31 34 32 35 33 22 20 19 20 19 15 19 17 16 14 18 17 16 16 15 16 17 20 16 16 16 17 19 20 23 26 27 28
49 49 50 50 50 52 46 37 36 36 32 32 34 34 35 34 28 25 22 19 17 16 16 15 13 15 14 15 15 17 16 15 19 21 20 16 16 17 16 19 20 22 25 27 28
49 49 50 50 51 44 38 37 40 35 31 29 29 29 27 31 26 24 20 18 17 15 14 13 12 15 15 14 15 16 17 19 19 21 19 18 10 11 15 16 21 22 25 26 26
49 49 50 50 44 41 36 40 40 35 25 22 21 25 26 26 19 25 20 19 16 14 14 14 14 14 14 14 16 15 21 22 20 18 12 18 6 12 14 17 19 19 24 24 28
49 49 50 49 43 38 40 42 39 38 16 21 17 19 18 17 16 17 21 18 17 15 16 14 14 14 15 15 21 17 24 21 21 18 19 12 13 10 18 14 17 21 24 26 32
50 50 49 48 45 41 41 41 40 28 17 17 18 17 20 21 21 22 19 20 19 16 17 16 16 15 16 25 24 24 21 20 22 19 10 12 14 10 12 16 21 21 23 26 34
50 50 48 42 36 39 41 39 30 22 21 18 17 18 19 22 21 23 23 20 17 16 16 18 18 26 24 20 23 22 21 14 5 7 2 19 14 13 19 19 20 21 23 28 34
49 48 49 44 45 45 39 34 28 23 17 19 17 19 19 22 22 23 21 22 26 22 18 17 15 23 25 21 20 21 19 9 2 2 3 15 10 11 19 21 24 26 32 33 32
48 46 45 45 44 41 36 30 30 20 19 21 21 21 22 23 22 22 22 22 25 26 21 21 21 25 25 25 24 21 20 22 18 17 16 10 15 21 20 23 25 27 31 32 35
46 44 42 43 43 41 35 32 29 29 26 25 20 22 20 21 21 22 22 24 25 27 28 25 22 24 24 26 25 23 24 22 24 16 13 12 15 13 18 19 25 27 30 34 36
44 40 42 42 44 38 36 30 32 32 27 27 24 22 22 22 23 22 21 22 26 27 29 28 27 22 27 25 20 25 22 25 25 26 17 14 12 23 22 24 27 29 31 34 37
44 34 42 41 36 34 31 29 32 28 29 28 27 25 24 25 24 23 22 23 29 30 27 30 30 24 23 24 25 24 25 27 27 23 27 24 18 24 26 26 30 30 31 34 38
40 40 43 41 35 31 29 28 28 26 29 28 27 26 27 26 26 26 26 27 27 30 31 34 29 22 20 25 28 26 26 25 28 29 24 21 17 27 27 28 29 33 35 38 38
37 30 31 35 33 29 28 25 28 30 28 29 28 28 28 27 28 26 26 28 28 30 34 37 30 28 21 21 24 24 25 26 28 29 23 23 23 25 28 30 32 35 38 37 38
34 34 34 22 26 31 32 30 27 25 30 30 27 28 27 26 26 26 27 27 28 30 31 33 28 29 28 27 27 26 25 25 26 26 25 25 24 26 29 31 34 37 38 37 36
34 30 34 32 33 31 31 28 28 28 28 26 26 28 29 27 28 26 26 27 28 29 31 35 28 28 24 26 29 28 27 27 26 26 25 26 27 30 32 33 35 35 36 36 35
40 39 37 27 28 29 25 27 28 30 25 29 30 29 28 25 29 30 31 32 31 30 28 30 29 30 24 23 24 22 22 23 24 25 28 28 29 29 31 32 33 34 35 36 36

GFSSW_sfc_dewp_072.txt.gz
Dewpoint
53 53 53 53 53 52 51 52 51 51 52 53 53 54 54 53 54 48 39 35 41 55 51 24 24 23 20 21 28 31 28 26 25 26 27 28 31 34 33 32 31 32 33 34 33
53 53 53 53 53 53 52 51 51 52 51 53 53 53 53 53 49 39 47 46 52 53 29 18 14 19 17 19 23 27 25 23 25 26 26 27 29 30 32 31 30 32 33 32 30
52 52 52 53 53 53 52 51 51 51 52 52 53 53 53 53 43 24 55 53 51 53 28 23 21 18 13 17 21 25 24 21 21 25 28 29 28 30 30 30 30 30 30 28 29
53 52 52 52 52 52 52 52 51 51 51 52 53 53 54 49 22 34 57 55 55 39 30 16 18 16 13 13 17 19 21 23 21 24 27 27 28 28 31 31 29 29 29 28 28
53 52 52 52 52 52 52 52 51 51 51 51 53 54 49 37 27 42 57 54 42 35 30 26 16 15 13 11 12 17 16 17 19 21 22 23 23 25 26 28 25 26 27 26 27
51 50 51 51 52 52 52 51 50 51 50 51 52 53 41 24 34 39 43 42 33 31 28 28 21 21 18 16 16 14 13 15 16 16 17 16 16 17 19 22 22 28 24 23 25
50 50 50 51 52 52 51 51 50 51 51 52 53 49 35 18 34 38 42 35 33 31 24 24 25 21 19 16 18 17 17 15 15 15 14 14 14 14 17 21 22 34 27 26 26
51 50 51 51 52 52 51 51 51 52 52 52 53 47 28 21 31 35 34 31 32 33 31 25 25 21 20 21 17 15 14 9 9 11 12 14 13 16 19 21 22 25 32 33 25
50 50 50 50 51 51 51 52 53 53 53 53 50 45 27 42 31 24 28 19 19 23 27 22 22 20 20 17 14 17 7 9 8 16 14 15 11 13 19 21 22 22 25 25 22
49 50 50 50 51 51 51 51 55 54 50 49 46 41 32 26 29 28 24 21 18 18 20 24 20 19 16 14 8 10 11 10 11 13 15 14 14 16 18 18 20 21 23 24 23
49 50 50 50 51 51 50 44 39 38 43 30 28 31 29 31 32 24 19 19 20 20 16 19 16 14 14 16 15 14 13 13 13 14 17 15 15 16 18 17 18 19 21 25 25
49 50 50 50 51 51 47 34 36 37 31 31 30 30 30 31 24 22 23 19 20 17 16 15 14 14 14 14 14 14 14 14 15 15 18 17 16 17 18 18 17 18 21 22 26
49 50 50 50 51 48 38 37 39 37 32 25 27 24 23 27 22 19 19 19 18 16 14 14 11 12 13 13 14 15 15 15 15 18 18 16 15 16 13 15 16 20 22 25 27
49 50 50 50 46 40 36 40 38 38 28 21 22 23 25 24 21 21 20 19 17 15 14 14 13 14 14 14 14 14 14 16 17 17 12 16 10 14 13 15 17 21 22 23 23
50 50 50 49 44 37 39 40 38 40 21 18 18 21 18 19 18 19 20 20 18 17 16 14 14 14 15 15 16 15 18 18 18 18 17 13 10 12 14 16 18 19 19 22 26
50 51 50 47 46 39 40 41 41 31 21 19 17 17 18 19 18 19 20 20 20 18 18 17 17 16 15 17 19 20 19 20 20 17 10 9 8 3 9 13 16 19 17 22 30
49 50 48 41 39 42 41 39 32 25 21 19 17 18 18 18 20 21 22 22 19 18 18 17 16 17 21 19 23 22 21 16 12 8 8 15 12 11 16 13 14 16 19 27 32
49 49 49 44 43 44 40 34 28 24 20 20 18 19 20 20 21 21 22 20 22 21 17 17 14 18 23 19 18 20 21 15 9 4 0 14 10 11 16 16 21 24 28 29 30
48 48 47 46 43 42 35 28 29 24 21 21 22 21 19 21 21 19 21 19 19 23 22 18 19 22 23 22 22 19 21 21 18 15 9 9 10 16 21 20 24 25 28 29 32
45 44 42 43 45 42 32 28 26 27 26 25 22 21 19 18 20 20 20 20 21 25 27 23 23 20 21 25 24 24 20 19 18 14 8 6 10 11 19 17 21 24 26 30 32
46 38 43 43 45 36 35 27 29 30 30 26 25 24 22 20 20 21 20 20 22 22 26 24 25 21 22 22 19 20 19 20 19 20 18 13 10 23 21 23 25 26 28 31 33
42 32 42 43 34 34 30 28 32 26 26 25 27 26 24 23 23 23 22 23 23 24 24 25 28 22 20 22 23 24 22 21 30 24 23 23 19 22 25 24 26 28 29 32 35
30 35 43 42 32 25 24 21 24 23 23 27 27 27 27 27 27 25 25 25 25 26 25 28 27 24 21 24 28 25 24 23 24 27 27 24 17 25 26 26 27 28 30 33 36
31 27 27 34 31 25 21 20 21 28 28 29 28 27 27 27 28 27 25 26 27 27 33 36 32 28 25 22 31 28 26 24 25 31 23 19 20 22 25 26 26 29 32 33 35
30 31 33 24 23 27 29 23 21 21 25 27 24 27 26 25 22 23 24 24 24 29 30 32 28 26 21 20 22 22 24 25 27 26 25 23 21 23 25 26 28 31 33 32 33
30 26 28 24 28 27 28 20 20 21 26 17 21 21 24 27 26 25 24 23 24 25 27 30 27 26 22 21 21 22 22 22 21 20 20 21 23 25 26 27 29 31 32 32 32
33 37 32 30 21 25 22 18 19 25 21 22 25 25 26 27 27 26 27 28 28 27 27 27 31 29 25 22 25 22 20 20 21 22 22 21 23 25 28 29 31 32 33 34 35

GFSSW_sfc_dewp_078.txt.gz
Dewpoint
53 54 53 52 54 53 52 52 52 53 53 53 53 53 54 55 55 47 44 42 40 57 45 14 14 23 23 23 23 23 22 23 22 22 23 24 23 30 30 29 33 34 34 36 35
53 53 53 53 53 52 52 52 52 52 53 53 53 54 54 55 49 43 48 56 52 52 29 19 12 12 15 20 21 21 21 20 21 21 21 21 22 23 30 30 31 35 36 36 34
52 51 52 51 52 53 52 52 52 52 53 53 53 53 54 53 46 34 56 55 54 46 36 24 15 13 10 14 18 19 20 20 20 21 20 19 19 21 23 29 32 34 37 37 35
50 51 52 51 51 52 52 52 52 52 52 52 52 53 54 49 35 31 57 54 53 40 42 19 12 10 12 13 14 14 17 18 20 20 20 20 20 19 19 25 32 34 37 37 38
51 51 51 51 51 51 52 52 52 52 52 52 53 53 48 43 38 37 58 52 40 40 33 25 19 13 9 8 9 9 12 14 16 17 17 18 17 19 19 22 26 32 34 36 37
51 50 50 51 51 52 52 51 52 52 52 52 53 53 46 34 36 35 31 34 35 26 24 23 21 19 18 15 12 9 8 8 10 11 14 15 15 16 19 22 25 27 33 34 36
51 51 51 51 51 52 52 53 53 52 52 53 53 48 39 31 25 32 32 28 27 23 22 21 20 20 18 16 15 14 12 11 11 12 12 12 12 14 17 19 19 22 26 32 32
51 51 51 51 51 52 52 53 53 53 53 53 53 45 36 28 23 25 26 26 25 22 23 23 23 19 19 18 15 13 14 12 12 11 11 12 12 13 14 17 18 17 20 23 30
50 51 51 51 51 52 53 53 53 55 55 53 48 44 35 34 17 21 23 23 20 21 22 20 19 17 17 15 14 13 9 9 8 10 8 9 10 12 14 17 20 21 21 20 27
50 51 52 51 51 52 53 53 54 53 52 44 41 40 35 29 17 19 22 22 20 18 18 18 18 17 15 13 8 9 8 9 11 12 9 8 10 14 15 14 19 21 22 25 27
50 50 51 52 51 52 50 47 46 45 45 37 36 34 27 26 27 24 22 22 21 19 16 18 16 15 16 16 14 13 14 14 15 15 12 12 14 14 17 16 17 21 25 28 30
50 51 51 52 52 52 49 43 33 33 30 31 33 25 24 25 22 23 21 20 18 17 18 17 15 16 14 12 12 14 14 12 11 10 12 12 12 15 17 19 21 22 25 28 30
50 51 52 52 52 49 43 34 33 33 31 28 26 18 19 22 22 19 20 19 17 16 17 17 16 15 13 13 12 13 12 13 12 13 14 15 15 17 18 20 22 22 24 27 29
50 51 52 52 46 40 36 35 31 36 28 28 20 17 17 20 20 21 20 18 17 16 16 16 15 14 13 12 11 12 11 12 14 15 12 15 13 19 18 19 19 20 23 24 25
50 51 52 52 45 39 35 31 31 38 29 23 19 21 18 18 19 19 20 19 17 16 17 16 16 13 14 13 13 13 14 16 16 16 17 16 14 17 19 18 20 22 23 24 23
50 50 51 46 46 41 32 34 38 34 28 20 17 16 16 17 17 17 19 20 20 18 18 17 17 16 16 14 14 15 15 16 17 15 14 15 13 14 16 19 19 18 19 21 23
49 48 48 42 40 37 35 35 33 29 25 20 16 15 14 15 15 17 18 19 19 19 20 19 18 17 17 15 16 16 18 15 14 14 14 16 14 24 24 17 17 20 20 22 25
47 48 47 39 39 40 37 34 30 26 24 22 19 17 15 15 15 16 17 17 19 20 18 17 15 15 16 16 20 19 20 19 21 20 19 24 20 19 24 20 17 20 23 22 22
46 46 44 44 46 41 36 31 30 27 25 23 21 17 15 15 16 17 19 18 18 20 20 19 19 19 20 21 22 22 21 22 22 27 25 21 21 18 21 20 19 18 22 24 27
40 45 42 46 45 42 36 33 31 28 24 23 21 20 17 16 17 18 19 20 20 22 23 22 21 19 19 19 23 25 23 23 21 23 21 17 20 19 25 24 22 20 23 27 30
44 42 45 44 44 35 34 33 30 26 22 20 22 23 21 19 18 18 18 18 20 19 24 24 24 21 23 21 18 21 27 31 28 22 21 19 18 26 26 31 28 24 24 27 29
41 36 43 42 33 35 36 28 30 21 22 22 23 22 23 23 22 23 21 22 22 23 22 28 29 25 24 24 21 21 26 31 31 31 31 26 25 26 31 32 38 36 28 27 28
35 33 42 35 30 32 30 26 26 24 23 22 25 25 26 25 25 25 24 23 23 23 26 29 27 24 21 20 25 32 32 32 33 32 31 30 25 23 35 35 37 36 35 35 30
36 28 33 34 32 31 29 28 26 28 26 23 23 26 27 27 26 25 24 24 23 22 39 33 29 26 25 23 23 24 27 30 33 30 28 25 24 26 29 32 38 41 37 38 41
37 33 34 27 26 31 31 28 27 27 26 26 27 27 27 26 22 22 23 23 23 29 30 30 29 28 21 19 19 18 18 18 26 28 28 25 24 23 23 26 34 36 36 34 41
34 30 32 29 31 31 32 30 27 27 25 25 26 24 24 24 23 23 23 24 25 26 27 30 23 21 17 19 21 19 19 18 16 14 13 17 18 18 20 22 25 32 34 34 36
38 36 32 34 32 31 30 27 27 27 26 26 26 26 24 24 23 23 24 26 25 25 25 25 23 26 24 23 21 21 17 21 25 25 24 22 23 24 28 35 35 35 35 41 41

GFSSW_sfc_dewp_084.txt.gz
Dewpoint
51 50 51 52 52 51 51 51 52 53 53 53 53 54 54 54 54 49 44 46 51 57 52 19 12 12 24 22 25 26 25 24 25 25 25 26 24 25 26 28 31 32 34 37 36
51 51 51 50 51 51 51 51 52 52 53 53 53 53 53 54 51 48 49 59 61 56 26 14 11 10 10 23 23 22 21 22 24 24 23 23 23 23 26 29 30 31 35 37 35
51 51 51 51 51 51 51 51 52 52 52 53 53 53 53 53 46 44 58 59 57 52 31 33 35 30 8 14 18 20 19 21 21 22 22 22 21 22 26 28 30 30 31 35 34
51 51 50 51 51 51 51 51 51 51 52 52 52 53 53 51 33 30 61 60 57 37 36 41 39 16 10 10 12 11 16 19 19 21 21 20 20 20 22 27 32 33 34 36 34
51 50 50 51 51 51 51 51 51 51 52 52 52 53 50 43 43 41 61 57 44 39 39 39 38 25 9 9 10 11 12 14 17 19 19 20 19 19 18 22 26 30 33 35 37
50 50 51 51 51 51 51 51 51 52 52 52 53 53 49 29 28 47 47 45 37 35 37 38 34 21 20 19 17 16 16 15 13 11 12 12 13 14 14 21 21 21 26 34 36
50 51 51 50 51 51 52 53 53 53 53 52 53 50 44 30 34 45 41 35 35 35 34 24 24 21 23 17 20 17 13 14 14 15 13 15 12 12 15 17 16 18 23 28 37
51 52 50 51 51 51 52 53 53 53 54 54 53 49 38 39 39 34 36 34 32 32 26 23 24 23 19 18 16 15 14 12 12 15 14 13 11 14 16 16 17 18 20 31 36
52 52 51 51 51 52 53 53 53 54 55 54 48 45 36 46 40 34 31 32 29 28 25 21 20 19 18 15 14 16 12 12 13 14 14 13 11 14 16 16 16 18 19 21 28
52 51 51 51 52 52 53 53 52 52 53 50 45 39 40 37 27 23 23 27 24 26 22 24 18 17 17 14 12 12 12 12 13 13 14 13 12 14 17 16 16 17 20 22 25
51 51 51 51 52 53 50 45 43 44 46 36 36 35 35 37 25 18 20 22 26 24 19 20 16 15 15 17 16 15 15 14 17 16 14 12 13 14 16 17 16 18 19 23 26
51 50 50 51 51 53 48 40 42 33 30 41 39 35 35 39 36 25 24 22 23 19 21 18 16 16 18 18 18 18 15 13 15 15 14 13 13 16 17 17 17 16 19 22 24
52 51 51 51 51 49 44 42 43 39 30 30 37 38 37 38 35 25 26 24 21 19 18 17 17 19 18 18 17 16 13 14 14 17 18 17 17 18 20 21 21 21 21 21 23
51 51 51 50 47 44 40 42 37 38 30 30 29 29 32 34 22 23 26 22 21 18 18 17 17 18 17 17 17 12 15 15 15 16 13 17 12 16 18 19 21 19 19 21 22
51 51 50 48 41 39 37 42 39 39 23 33 25 23 20 19 22 24 24 23 20 18 17 15 17 17 17 16 17 16 18 16 17 17 15 15 13 14 18 17 17 18 19 20 22
50 50 50 47 48 43 44 39 37 35 29 28 20 17 16 18 19 22 23 24 23 19 18 16 19 18 17 17 18 18 18 17 17 15 12 14 14 12 15 16 20 25 26 26 27
50 49 48 42 35 40 40 38 32 30 33 28 24 21 19 19 18 19 20 19 17 15 16 17 17 18 19 19 21 21 17 16 15 15 14 16 16 15 19 24 27 27 26 27 31
47 48 48 44 41 39 42 35 28 30 29 28 24 24 24 22 21 22 21 18 20 21 19 20 19 22 23 22 18 23 21 21 21 19 21 28 25 23 27 28 30 30 29 26 30
46 41 45 42 41 43 38 32 31 32 30 29 22 22 22 21 23 23 22 21 22 24 21 22 22 25 24 25 21 21 21 23 24 27 30 30 30 28 27 27 32 32 31 31 28
41 42 45 46 44 43 37 34 32 32 30 26 22 23 20 20 19 21 22 24 24 26 25 24 21 24 24 26 26 24 28 23 28 26 25 27 27 25 26 29 31 33 35 36 36
37 38 44 47 44 39 32 34 32 33 32 26 25 24 23 24 23 24 23 25 27 24 25 24 23 24 27 26 24 24 26 33 30 30 26 21 25 30 29 31 31 32 35 37 38
38 34 39 44 36 37 34 33 36 29 30 30 31 25 25 26 26 25 25 27 27 26 23 25 27 26 26 28 28 28 33 32 26 27 31 30 25 28 27 30 31 32 34 35 37
39 36 40 41 33 30 32 28 29 28 28 29 31 29 28 26 26 29 30 30 27 27 31 28 25 24 23 25 26 27 30 31 32 31 25 25 24 27 30 28 28 32 33 34 36
38 36 39 37 36 30 29 30 30 32 30 30 28 29 28 27 28 28 25 28 25 25 40 33 28 25 24 24 26 26 27 26 29 23 24 25 24 25 26 29 29 35 36 35 35
41 37 37 32 32 34 31 32 33 33 30 29 29 28 27 25 25 25 26 25 25 29 28 29 27 27 27 28 27 26 24 21 19 25 24 23 23 25 36 38 38 39 40 38 36
42 39 39 37 35 35 35 34 34 33 28 30 30 32 30 27 27 25 24 24 24 26 25 26 24 24 21 27 27 21 21 22 21 22 25 30 29 40 41 41 40 41 41 42 42
45 45 42 37 35 36 35 37 38 36 30 32 33 34 31 28 27 26 26 26 25 24 23 22 22 22 19 23 25 22 23 28 32 35 35 34 37 41 40 39 39 39 43 43 43

GFSSW_sfc_dewp_087.txt.gz
Dewpoint
51 50 50 51 51 52 51 51 52 52 52 52 52 53 54 54 53 49 41 39 49 56 55 29 13 13 23 24 24 27 25 24 26 26 27 27 25 27 27 26 28 31 35 36 35
50 50 51 50 51 51 51 51 51 51 51 51 52 52 53 53 50 47 47 54 58 59 32 20 10 8 10 23 23 23 22 22 26 26 25 25 24 23 23 23 24 30 36 36 36
50 50 50 50 51 50 50 51 51 51 51 51 51 52 53 53 45 43 57 57 61 58 30 30 34 32 13 15 21 21 21 22 22 24 24 23 22 23 22 21 26 26 32 35 36
51 50 50 51 51 51 50 50 51 51 50 51 52 52 53 50 30 32 61 59 60 42 32 39 37 18 12 10 12 13 16 19 20 21 22 22 21 20 21 21 24 29 33 35 34
50 50 50 50 51 51 51 50 50 50 51 51 52 52 48 37 37 39 61 59 48 37 37 38 35 28 22 10 15 10 11 12 14 15 19 20 20 20 19 22 24 26 28 31 35
51 50 50 50 50 51 51 51 51 51 52 52 52 53 46 16 13 42 47 47 36 36 37 38 33 25 20 18 17 17 16 16 16 14 12 12 12 15 16 21 22 24 23 21 30
51 51 51 50 51 51 51 51 53 53 52 52 52 50 44 14 34 48 41 35 32 35 34 36 30 23 20 17 19 18 14 14 14 15 13 14 12 13 16 19 19 20 20 21 24
52 51 51 51 51 51 52 52 53 53 53 53 53 48 35 34 39 37 39 34 33 33 34 31 23 21 18 18 15 14 14 12 12 16 13 13 11 14 17 16 17 17 18 21 26
53 52 51 51 51 51 52 53 53 54 54 54 47 43 33 45 41 38 34 30 33 32 31 28 21 19 17 15 13 14 10 12 12 15 15 13 12 15 17 17 17 17 17 22 25
53 52 52 51 51 51 53 53 52 52 53 51 46 38 38 35 36 35 33 31 32 26 23 21 19 16 16 14 11 11 12 12 13 14 15 12 13 15 16 17 17 18 19 20 23
53 53 52 52 51 52 50 46 41 41 46 36 32 33 32 37 34 21 25 29 27 23 17 22 15 14 15 16 16 16 15 15 16 16 16 13 13 14 16 17 16 18 20 21 23
52 52 52 52 51 51 47 37 39 36 36 41 39 35 34 37 37 38 21 19 22 18 20 18 15 17 18 18 18 17 16 16 17 17 14 14 14 16 17 17 18 19 19 20 22
52 52 52 52 51 48 42 39 41 39 35 31 38 37 36 36 35 37 24 23 21 20 19 17 18 19 19 18 18 18 17 17 16 16 17 16 16 17 19 21 20 21 22 22 22
52 52 52 51 46 43 39 42 41 38 28 29 30 35 37 36 28 36 28 24 21 18 19 18 18 17 17 17 17 15 17 15 16 16 12 15 10 14 17 18 20 20 20 21 22
51 52 51 50 38 36 38 43 40 38 23 31 28 31 33 29 25 23 26 25 21 19 19 18 17 16 16 16 17 17 19 19 19 17 15 15 14 14 17 15 17 18 20 21 22
51 51 50 48 47 42 43 40 38 34 26 30 18 21 22 23 21 21 23 25 24 21 19 17 20 17 17 17 19 19 19 19 18 15 13 14 14 13 14 15 17 20 23 27 28
51 51 49 42 30 38 39 38 32 30 29 27 24 21 17 17 17 21 20 19 19 16 16 18 17 18 20 19 21 22 20 18 18 17 17 22 23 16 19 21 22 24 28 28 27
50 49 47 44 41 39 40 34 28 26 30 29 23 23 24 23 23 25 23 20 21 20 19 18 16 21 24 21 19 19 20 19 18 20 19 26 25 24 27 29 29 32 33 34 30
49 41 42 45 45 40 37 30 26 33 30 30 28 22 22 22 21 23 23 21 23 23 21 21 22 24 24 26 23 22 20 24 22 28 23 26 30 29 29 30 31 31 34 35 35
43 39 40 44 40 42 33 28 32 33 30 31 22 23 20 20 21 21 22 26 27 26 24 24 21 24 24 25 26 23 27 23 26 25 23 26 28 26 27 28 29 29 31 33 36
39 37 37 45 44 38 32 32 32 32 29 28 25 24 22 23 23 23 23 25 28 27 25 23 24 23 27 25 23 25 29 32 31 31 27 24 23 31 28 25 26 31 34 32 37
40 36 37 41 37 37 33 33 34 32 32 30 32 28 26 25 25 25 25 27 27 30 25 26 25 25 25 27 28 27 29 31 25 23 31 28 23 26 25 27 31 30 27 28 30
38 37 40 41 34 31 31 29 30 32 34 34 31 29 30 27 25 29 31 30 26 27 32 29 25 23 24 24 26 27 31 31 31 31 25 19 21 25 26 28 28 31 33 32 34
38 34 38 37 35 32 34 31 31 35 36 35 30 31 30 27 28 27 26 28 26 26 34 31 27 24 23 24 26 27 28 28 28 21 23 24 23 24 25 36 38 39 40 41 42
41 38 37 33 34 35 37 37 36 33 34 32 33 34 34 28 28 26 28 27 27 30 28 25 24 27 27 28 29 28 27 26 24 24 22 20 22 26 38 39 39 40 41 42 42
41 40 40 38 37 35 37 37 37 39 34 32 33 34 35 36 35 33 28 25 25 26 22 25 20 24 19 19 22 24 24 23 22 21 21 22 30 41 40 41 39 38 39 40 42
44 44 41 38 37 36 35 37 39 39 39 34 33 35 35 35 33 30 26 25 25 24 24 21 21 22 19 23 25 23 24 25 30 36 35 31 35 37 39 39 39 37 37 40 42

GFSSW_sfc_dewp_093.txt.gz
Dewpoint
52 51 51 50 50 50 51 50 50 50 50 51 52 52 52 53 52 46 29 32 48 55 53 30 16 20 25 20 27 29 25 24 24 26 23 28 28 28 27 25 25 24 26 28 38
51 52 51 51 51 50 50 50 50 50 50 51 50 52 52 52 48 42 42 48 55 54 34 21 16 14 19 22 23 24 23 22 26 27 26 25 24 23 24 23 23 25 26 28 41
51 51 51 51 51 50 50 50 50 50 50 50 50 50 52 51 42 38 56 53 57 55 27 17 17 12 15 21 22 23 19 23 23 25 25 22 22 23 22 23 24 24 23 23 26
52 51 51 51 51 51 50 50 50 50 50 50 50 50 52 49 26 33 60 56 58 44 26 34 33 18 15 16 21 19 21 23 21 22 22 19 17 16 21 21 20 20 24 25 26
52 52 51 50 50 51 50 50 50 50 50 50 50 51 48 29 18 46 59 59 50 29 29 36 27 17 13 12 13 13 12 14 14 14 15 16 16 16 17 19 20 21 24 25 28
53 52 51 50 50 50 50 50 50 50 51 51 50 50 47 0 9 50 53 43 31 32 35 37 29 27 21 18 17 17 14 17 17 17 17 15 15 16 16 20 20 22 22 25 29
54 53 52 52 51 50 51 50 50 51 51 51 51 50 41 1 34 48 44 32 33 34 35 36 32 21 22 20 19 17 16 16 16 17 17 17 15 15 17 19 20 22 23 23 25
54 54 52 52 52 52 51 52 51 51 52 51 52 50 25 25 36 38 42 33 32 33 33 32 27 23 20 19 16 15 15 13 12 15 15 16 14 16 18 19 19 21 22 23 27
54 54 53 52 53 52 52 52 52 52 52 52 49 42 27 43 38 37 38 29 29 31 32 30 24 21 19 16 14 16 5 10 14 16 14 15 14 18 20 22 22 24 23 24 26
53 53 53 53 53 52 51 53 53 54 52 50 47 40 33 31 37 37 36 31 30 30 24 23 21 20 17 15 6 11 13 14 16 16 17 17 18 20 22 21 22 23 24 27 28
53 53 53 53 53 52 49 48 41 41 49 39 35 26 29 33 37 34 32 30 28 26 21 21 20 18 18 19 17 16 16 16 18 19 18 19 20 21 22 22 20 22 25 29 30
52 53 53 53 53 52 48 37 37 39 35 40 40 37 35 34 31 31 30 27 26 22 21 19 18 20 19 18 17 17 17 17 19 20 20 19 19 20 22 21 21 22 24 27 29
51 52 53 53 51 48 42 38 41 40 34 32 37 37 37 36 32 31 29 25 22 21 19 19 17 20 18 18 18 18 18 19 18 19 20 19 18 21 21 23 23 25 27 29 30
51 52 52 52 45 41 37 41 41 41 30 28 30 34 35 34 29 32 23 23 21 18 19 18 18 18 19 18 19 17 18 18 19 19 16 19 15 21 22 22 23 24 26 26 28
50 51 51 50 46 35 37 40 40 41 21 27 30 36 35 30 26 32 29 23 19 21 21 18 19 18 19 18 19 17 19 19 20 19 21 19 17 18 21 21 22 24 25 30 35
49 50 50 47 47 42 42 39 42 31 22 27 29 29 29 29 26 26 30 28 26 21 22 20 20 19 19 18 19 18 18 21 22 19 17 19 19 17 19 22 21 24 31 34 33
49 49 49 46 39 39 39 40 29 25 28 25 25 25 24 25 25 23 23 27 24 21 22 21 21 21 20 19 21 21 22 16 15 16 16 22 20 21 25 24 24 30 30 30 33
48 49 48 47 43 43 40 35 23 23 29 32 30 24 23 21 23 23 21 19 23 22 19 17 16 19 20 20 19 21 22 16 16 15 16 21 19 21 28 30 32 29 29 29 31
48 44 42 43 46 44 38 27 25 31 29 28 28 23 28 33 29 29 25 22 23 23 21 20 20 23 23 23 23 23 21 23 22 24 26 22 23 28 30 32 30 26 26 29 34
44 41 39 42 45 43 34 28 29 32 33 31 27 29 27 27 28 33 34 34 27 26 27 25 23 23 23 25 26 24 25 23 23 23 22 20 23 22 27 28 27 27 28 30 35
43 38 39 43 45 41 36 33 31 34 34 34 34 32 33 32 29 32 28 28 28 28 27 26 27 24 25 24 23 24 24 30 30 30 28 23 21 31 30 29 29 28 30 34 39
42 35 42 43 41 37 33 32 34 34 36 35 38 37 35 33 34 32 31 32 33 35 31 30 29 25 25 26 28 28 26 27 32 29 32 31 26 29 32 28 30 30 35 39 39
41 39 42 43 36 33 36 35 33 36 36 37 36 38 37 36 35 34 34 34 34 34 34 30 28 25 24 25 28 26 28 30 31 32 30 28 24 28 29 29 30 34 38 39 39
40 36 38 39 38 36 35 35 35 37 36 38 36 38 37 37 38 35 37 35 36 36 38 39 35 29 25 24 27 26 27 28 32 32 27 25 25 26 28 28 30 37 39 38 36
41 38 39 34 34 35 35 35 32 33 37 38 35 37 37 36 36 36 38 37 38 39 37 38 34 28 26 25 25 24 23 23 25 28 27 25 23 24 26 28 34 40 38 36 34
41 36 37 34 34 33 34 33 31 35 37 36 36 37 38 37 37 36 38 38 37 34 34 33 31 27 24 22 21 18 17 18 23 25 24 24 23 26 33 39 39 37 36 35 34
45 44 40 34 32 32 33 34 33 33 33 37 37 37 36 37 38 39 40 39 38 37 34 29 25 24 20 20 21 20 21 20 19 20 21 20 24 35 37 38 38 37 37 37 35

GFSSW_sfc_dewp_096.txt.gz
Dewpoint
52 52 52 52 52 52 52 51 50 50 50 51 51 51 52 53 52 42 27 31 41 52 54 31 19 18 19 21 25 26 18 13 14 16 15 23 21 24 25 24 22 24 26 28 30
53 52 52 52 52 52 51 51 50 51 51 50 50 50 52 52 43 32 44 47 53 55 34 24 17 17 16 19 23 21 17 13 16 19 17 20 22 19 19 19 19 21 25 26 26
53 53 52 51 51 52 52 51 50 50 50 50 50 50 51 50 39 34 55 53 57 55 27 21 19 16 15 17 20 21 17 15 19 20 19 19 17 18 19 19 19 20 23 24 25
53 53 52 51 51 51 51 51 50 50 50 50 50 51 52 45 23 35 59 56 59 39 24 21 14 14 14 15 17 16 17 17 17 17 18 19 19 16 16 19 19 19 21 22 25
54 53 52 52 50 51 50 50 50 50 50 50 50 51 46 28 10 50 58 56 51 35 17 23 16 13 12 12 17 17 14 14 16 14 13 13 13 13 14 17 16 17 20 21 23
55 54 53 53 52 50 50 50 50 50 50 51 50 50 41 9 14 47 42 46 34 20 28 27 20 16 12 11 11 14 13 13 14 14 15 15 13 13 15 17 18 19 19 19 21
54 55 54 52 52 52 51 51 50 50 51 51 50 47 35 13 25 44 41 31 25 31 30 30 25 21 20 17 18 16 15 15 16 15 15 17 15 13 16 16 17 17 19 20 21
54 54 54 54 53 52 52 52 51 51 51 52 51 45 30 17 24 38 39 28 30 31 31 30 27 23 22 21 18 16 16 10 10 11 11 16 9 14 17 18 18 17 18 20 22
53 53 54 53 53 52 53 52 52 52 52 52 48 41 31 40 28 27 39 28 26 26 30 29 27 22 21 17 13 15 4 8 5 12 11 12 8 15 19 21 22 21 21 19 22
52 53 53 54 53 53 52 54 53 53 52 46 44 41 38 25 26 28 33 30 26 28 29 28 23 20 16 12 5 7 9 7 11 15 16 15 14 15 17 18 22 22 21 22 23
51 52 53 53 53 53 50 50 47 47 47 36 32 32 28 32 37 29 33 30 30 29 23 23 18 17 17 17 13 12 14 14 16 17 19 18 17 18 20 20 20 20 21 23 25
50 51 52 52 52 51 48 38 38 39 35 35 37 33 33 33 31 30 31 28 28 23 22 21 17 17 18 18 16 15 15 16 17 18 19 19 18 19 21 21 21 21 22 23 24
50 50 51 52 51 49 41 38 40 40 35 32 34 34 34 34 31 30 28 28 26 23 21 19 17 17 17 18 17 16 16 17 17 18 19 20 19 20 19 22 23 23 24 25 26
49 50 50 51 46 41 35 40 40 41 30 26 29 32 34 31 30 31 29 25 22 19 19 18 17 16 16 16 16 17 16 17 18 18 15 19 15 21 20 22 23 24 24 25 28
49 49 49 49 44 38 38 39 40 42 23 28 30 34 31 26 29 29 29 23 21 19 20 17 18 18 18 16 17 17 16 18 19 20 21 19 18 20 22 22 23 25 26 30 35
49 49 49 46 47 43 41 38 41 31 21 26 29 29 27 29 22 30 31 27 26 21 21 20 20 20 19 19 19 19 19 20 21 21 18 19 18 18 20 22 24 24 26 33 31
48 49 49 46 40 39 39 38 30 22 26 24 25 25 23 23 24 23 27 29 25 23 22 21 20 20 21 20 20 21 23 19 18 16 17 21 20 22 25 24 26 28 29 30 30
48 49 48 45 44 44 41 35 24 22 27 31 29 25 23 23 24 25 22 21 25 26 22 20 18 19 20 21 20 21 24 19 19 17 16 21 21 22 27 27 29 30 29 29 30
48 47 42 44 46 46 39 28 25 28 28 27 28 26 28 29 29 31 28 27 26 25 24 22 21 21 22 22 23 23 21 24 23 23 24 21 24 26 27 28 30 30 29 30 32
44 44 41 44 48 45 34 26 28 30 31 30 25 27 24 25 27 32 32 33 30 28 31 28 27 26 25 24 24 25 24 25 23 27 25 21 22 23 28 29 30 30 29 30 31
46 41 41 45 46 40 35 32 30 32 33 32 30 30 30 29 29 29 31 31 32 34 35 34 35 32 29 25 24 25 24 25 26 26 29 26 24 30 28 29 31 30 30 30 31
44 36 42 45 40 40 35 33 36 32 34 34 35 34 32 32 33 32 32 33 33 37 32 36 36 30 28 27 26 27 27 27 32 31 32 34 30 30 31 30 31 30 29 30 33
39 39 43 44 37 36 38 35 35 35 35 35 34 35 36 35 34 35 34 34 34 36 38 39 37 30 27 28 29 27 27 27 30 30 32 32 28 29 30 29 29 28 28 31 37
39 36 39 40 39 38 37 35 34 35 35 37 36 38 37 37 37 35 34 35 35 35 40 40 38 32 27 28 32 28 27 27 29 34 29 26 27 28 28 28 26 27 28 35 38
39 38 38 34 34 36 36 35 31 31 34 34 35 34 36 37 35 35 37 38 37 38 40 40 35 34 31 30 28 27 25 23 25 27 27 27 27 27 26 25 26 30 35 37 36
38 36 37 36 35 34 34 33 30 33 34 36 36 35 36 36 37 37 38 36 36 35 37 40 35 34 30 28 25 23 21 20 20 19 18 19 20 24 24 28 33 35 36 35 35
44 43 39 35 33 33 32 33 32 33 32 33 35 36 36 35 38 39 39 39 39 38 36 38 35 33 27 24 21 19 19 18 18 20 17 16 20 24 31 32 34 36 35 35 35

GFSSW_sfc_dewp_102.txt.gz
Dewpoint
55 55 54 53 52 52 52 52 51 51 51 52 52 52 52 52 52 45 30 34 38 54 48 28 25 23 20 14 15 17 15 12 10 10 13 12 9 19 25 26 27 27 28 30 31
55 55 55 53 52 52 52 52 51 51 51 51 52 52 52 53 45 32 40 58 57 54 17 23 20 17 14 12 13 15 18 14 12 13 10 10 11 12 14 17 25 26 27 26 28
54 54 54 54 53 52 52 51 51 51 51 52 52 52 52 51 40 27 61 60 59 52 14 22 19 13 12 11 12 16 16 14 12 9 13 15 14 15 17 18 20 20 19 23 25
53 54 54 54 53 53 52 51 51 51 52 52 52 52 52 45 33 43 59 59 60 30 17 26 19 15 13 11 11 12 15 15 13 11 14 15 13 13 17 17 15 17 18 18 22
53 53 54 54 54 53 52 52 51 52 51 52 52 52 48 38 26 48 59 55 34 32 23 20 16 15 12 10 11 12 13 14 13 12 12 14 13 12 13 15 16 15 17 19 23
53 52 53 54 54 54 53 52 52 51 51 52 52 53 43 27 31 40 33 33 25 32 28 19 14 11 10 10 9 11 11 11 12 11 12 11 11 10 10 12 13 16 19 18 22
53 53 53 52 53 54 55 53 53 52 52 52 53 48 40 29 10 37 32 34 34 33 22 14 17 19 13 12 13 9 10 11 12 10 10 10 10 11 13 14 15 17 19 19 24
52 52 52 52 53 53 53 54 53 52 52 52 54 46 41 32 24 18 33 33 31 20 20 25 25 24 21 18 16 12 11 10 12 12 11 11 11 11 13 16 15 16 17 19 23
52 52 52 51 51 53 53 53 53 53 52 53 49 44 36 38 23 13 33 29 21 23 28 26 26 23 19 17 16 17 12 9 8 7 8 11 11 12 13 17 19 21 21 20 24
52 52 51 51 51 52 52 54 55 53 51 48 45 41 39 31 26 13 26 30 23 24 23 23 22 20 17 14 10 9 9 8 8 7 9 8 8 9 11 17 20 23 24 25 26
53 52 51 51 51 51 49 50 50 49 49 41 38 33 30 30 24 14 17 31 26 24 20 23 21 17 16 16 13 11 9 9 11 9 9 12 14 13 16 15 17 20 24 29 30
53 53 52 51 51 51 48 41 36 37 34 42 42 37 36 29 28 19 17 27 27 23 22 22 21 21 18 16 15 14 13 12 13 13 13 14 15 17 18 20 20 21 26 28 30
53 53 52 51 50 48 42 39 37 34 34 32 33 36 32 31 27 25 23 26 24 22 21 21 21 20 19 17 16 16 16 16 14 14 14 16 16 19 19 21 22 23 27 28 30
53 53 52 50 48 44 43 41 38 35 33 30 28 28 29 29 28 28 24 26 23 21 22 21 21 19 18 16 15 15 16 16 14 14 11 16 13 21 19 22 24 26 26 26 29
53 53 51 49 46 42 38 38 36 40 31 30 27 31 29 28 27 26 28 26 25 23 23 20 19 18 18 16 16 15 13 14 15 16 17 16 15 17 20 19 23 27 28 31 33
53 52 50 48 47 44 43 40 38 33 29 27 28 26 27 27 26 27 29 28 25 23 24 22 21 19 20 19 20 15 15 16 18 17 17 17 17 17 19 23 26 27 27 28 33
53 51 47 45 44 42 41 38 30 30 30 25 26 25 24 24 24 26 27 26 23 21 22 22 20 19 19 19 21 19 25 19 17 17 17 20 17 23 28 26 26 28 28 31 34
51 48 48 46 44 42 41 32 33 31 27 30 26 25 24 26 25 23 26 25 26 25 22 22 25 22 20 18 18 19 21 18 17 19 17 23 23 25 29 29 29 27 30 32 34
48 47 48 46 45 44 39 33 34 29 28 27 26 24 25 26 25 26 25 26 29 30 30 28 25 26 28 28 27 24 22 24 25 25 27 25 26 27 29 32 29 28 30 35 34
43 46 41 44 45 43 40 36 29 29 28 27 26 24 28 31 33 29 30 32 30 31 34 31 27 27 28 29 28 26 24 23 27 29 25 22 24 26 32 33 34 34 34 35 37
45 46 43 43 45 42 37 32 27 29 31 30 29 29 29 29 31 31 32 30 33 31 32 34 34 32 31 30 29 28 26 27 27 29 32 27 25 35 34 34 33 33 33 35 35
46 42 43 44 41 42 36 36 35 28 31 31 31 31 30 32 31 30 29 31 35 35 33 38 37 32 30 30 31 32 32 32 35 33 34 35 34 37 38 34 37 34 35 34 35
43 38 44 45 39 42 40 32 31 30 31 31 30 32 35 34 32 30 30 33 36 35 38 39 36 30 26 28 33 32 31 32 37 39 34 32 29 31 35 38 38 37 38 35 37
43 36 38 38 37 38 35 30 30 34 29 31 32 33 33 32 33 32 31 33 33 34 43 41 35 34 31 29 33 33 33 34 34 37 31 29 28 29 32 37 37 37 39 37 36
44 39 40 35 35 36 34 31 29 26 30 30 30 30 31 31 31 31 31 31 33 41 39 40 35 35 32 30 30 30 27 27 31 32 31 30 28 29 31 31 32 33 35 34 31
39 38 39 33 36 34 33 29 29 29 29 29 31 30 31 32 32 31 32 33 32 34 37 41 36 36 33 30 30 26 26 26 26 26 28 28 29 30 30 27 28 28 31 31 32
44 43 39 37 35 31 31 32 31 30 30 29 31 30 30 31 34 35 35 35 36 35 36 39 38 33 29 27 26 30 28 28 27 27 27 24 25 25 23 25 32 32 32 30 30

GFSSW_sfc_dewp_105.txt.gz
Dewpoint
54 54 55 54 53 52 52 51 51 51 51 51 52 53 53 53 53 48 42 35 40 52 52 21 22 25 20 19 18 15 15 14 13 12 11 11 12 13 28 28 28 30 33 35 34
54 55 54 53 53 52 51 51 51 51 51 51 52 53 52 53 49 42 45 54 58 59 26 21 20 24 21 17 15 13 16 15 16 14 11 12 15 15 17 24 26 28 30 32 30
53 54 54 54 53 52 52 52 51 51 51 52 52 52 52 52 44 36 59 55 61 52 21 16 16 18 16 15 12 12 12 18 17 16 16 14 15 15 16 19 22 28 29 25 29
52 53 53 54 54 54 52 52 52 51 51 52 52 53 53 49 36 42 62 58 61 31 19 12 14 19 12 12 12 10 13 16 16 16 14 15 16 15 15 17 19 21 23 22 22
51 52 52 52 53 54 55 52 52 52 52 52 51 52 50 43 36 51 61 59 41 27 19 14 25 20 16 12 13 11 13 14 15 15 13 14 14 14 14 16 18 19 19 20 20
53 51 51 51 52 53 54 55 52 53 51 51 51 53 48 33 38 49 39 35 26 27 20 19 21 17 13 13 11 12 12 13 12 13 14 12 13 14 15 16 14 17 18 17 18
53 53 52 52 52 53 53 54 53 52 53 52 52 50 42 37 35 39 33 30 26 27 32 28 22 16 19 11 12 12 11 12 12 13 12 13 11 12 15 15 15 16 20 20 20
53 53 53 52 51 52 52 53 54 53 53 53 53 49 43 41 38 33 34 33 32 26 32 25 17 25 25 22 19 16 14 7 10 13 14 12 9 15 16 15 16 19 19 22 23
54 53 53 52 51 51 52 52 54 53 53 53 51 46 41 41 28 21 28 31 32 29 22 26 26 26 24 19 17 17 14 14 13 13 12 12 10 15 16 16 21 18 19 18 20
54 54 53 53 52 52 52 52 54 53 52 49 47 43 43 36 31 25 14 31 27 22 26 26 23 22 20 18 14 14 14 14 13 11 10 9 11 14 12 19 20 22 21 24 24
55 54 54 53 53 51 49 45 50 48 49 43 40 36 36 37 25 19 15 29 31 25 21 22 21 20 19 18 16 14 14 12 12 13 14 10 11 13 16 20 20 23 23 25 26
54 54 54 53 53 51 48 43 41 37 35 46 41 39 38 38 30 23 15 27 30 25 23 22 20 23 22 20 18 16 14 14 16 17 13 15 15 17 17 18 19 23 25 27 30
54 54 54 53 52 49 45 41 40 38 32 31 37 41 38 36 30 27 13 21 27 25 23 21 21 22 22 20 18 17 17 18 18 19 17 16 16 18 22 20 20 22 24 26 28
54 53 53 52 48 46 44 43 41 40 33 32 31 34 35 34 29 30 29 24 25 23 22 21 22 21 21 19 17 15 17 15 18 18 15 16 11 17 22 20 21 20 21 26 28
53 53 53 51 45 44 44 43 41 41 29 30 28 30 29 29 28 28 29 26 25 24 23 23 23 20 19 19 20 20 21 15 17 17 19 17 16 17 20 20 21 24 21 25 30
53 53 52 48 47 46 45 43 39 35 30 28 29 28 27 28 27 26 28 28 28 25 25 25 25 22 21 20 21 22 21 23 22 18 14 16 18 16 18 19 21 26 27 33 35
53 53 51 46 45 46 45 42 33 31 34 31 27 26 27 26 26 26 27 26 25 21 22 23 23 23 23 20 21 21 20 18 18 17 17 19 17 17 22 30 30 31 34 34 34
52 51 49 45 46 45 45 38 30 34 32 33 26 25 24 25 25 26 27 26 27 24 24 23 22 24 24 20 17 18 20 19 17 18 17 22 23 26 30 32 30 33 35 35 34
50 46 49 49 46 47 42 35 35 32 28 27 27 25 25 28 30 25 26 26 29 34 33 32 30 30 31 30 30 26 25 24 26 26 24 25 26 28 34 35 35 35 34 34 32
46 44 47 49 49 47 41 37 37 29 28 28 26 27 30 35 37 33 33 34 32 35 37 35 31 30 30 32 31 31 29 25 28 25 23 26 25 28 34 35 35 36 35 34 34
46 46 46 45 49 45 39 40 37 30 30 30 31 31 31 31 32 33 34 32 35 34 35 34 34 33 32 32 30 29 28 27 28 35 28 24 26 36 36 36 37 36 36 36 35
44 44 46 48 42 43 41 42 41 28 32 31 35 33 33 34 32 31 31 34 35 36 34 38 36 33 32 33 32 30 30 35 36 33 33 30 29 35 37 35 37 37 37 38 38
41 44 49 47 38 41 46 43 42 30 32 32 33 34 35 34 32 33 33 35 36 36 40 38 35 29 27 29 37 37 36 35 39 40 36 34 33 35 34 37 36 35 36 36 39
43 42 45 46 43 39 39 42 37 33 28 31 33 34 33 32 33 32 33 34 34 40 45 41 35 33 28 29 32 31 31 31 35 35 36 35 34 34 32 36 37 36 38 38 38
44 43 42 37 38 39 37 34 30 30 31 31 33 33 31 29 31 31 33 33 34 44 40 38 32 34 32 32 31 29 29 28 28 27 31 30 31 31 31 31 32 34 34 37 36
43 41 41 39 39 36 37 33 30 31 32 34 32 33 33 31 31 31 32 33 33 38 38 42 34 34 33 31 31 29 28 29 28 27 26 26 25 29 31 31 30 30 32 32 32
46 46 42 40 37 35 34 35 32 32 33 32 32 31 31 34 35 34 35 36 35 34 35 38 37 35 28 29 29 25 26 25 29 30 28 26 29 32 32 34 32 32 34 36 36

GFSSW_sfc_dewp_108.txt.gz
Dewpoint
54 54 55 54 52 52 51 50 51 51 51 51 51 51 51 52 53 49 44 37 41 51 53 24 25 28 19 19 19 16 14 14 13 13 14 13 13 16 18 29 29 34 35 36 40
53 53 54 54 54 53 52 51 51 50 51 51 51 51 51 52 49 46 45 51 55 58 32 21 18 25 21 20 18 13 13 13 16 17 15 15 15 15 15 19 25 30 35 34 31
52 52 53 53 54 54 53 52 52 52 51 51 51 51 51 52 44 37 52 55 56 57 28 23 19 19 21 18 14 12 12 17 18 18 18 16 15 16 16 18 24 24 26 22 28
52 51 52 51 52 53 54 54 52 52 52 51 51 51 53 50 29 40 62 59 60 46 21 16 13 13 15 14 14 11 12 12 12 14 16 15 16 17 14 14 20 19 24 20 21
52 52 52 51 51 52 53 53 53 52 52 52 51 50 49 44 35 37 63 59 53 26 18 13 11 21 16 13 14 11 11 12 14 15 16 15 14 15 14 16 19 19 22 20 20
53 53 53 52 52 52 53 53 54 52 53 52 51 51 47 24 28 51 50 47 31 24 20 15 20 24 18 16 12 13 13 12 13 13 15 13 13 17 15 17 15 15 16 16 17
54 55 54 53 53 53 53 53 53 53 51 52 52 51 46 33 36 47 36 29 27 25 24 19 17 23 20 20 16 13 11 12 13 13 13 14 12 12 15 16 14 14 15 17 17
55 55 55 55 54 53 52 52 52 54 52 52 52 50 42 43 42 36 34 30 28 25 29 32 28 23 22 23 19 17 15 11 10 13 13 12 10 13 15 15 16 16 17 21 21
55 55 55 54 54 53 53 52 52 55 53 52 50 47 41 48 43 37 34 33 30 27 26 28 28 25 25 19 17 17 14 15 15 15 13 12 10 14 16 16 17 18 18 20 21
54 55 54 54 54 54 53 51 52 54 52 51 48 43 42 38 33 27 33 33 33 33 27 25 23 22 20 19 15 14 15 15 15 16 14 13 13 13 15 15 16 19 20 20 20
55 54 53 53 53 53 50 46 49 48 48 41 40 39 36 40 35 29 18 22 31 24 20 25 20 19 19 19 19 18 16 15 16 15 14 13 14 13 15 15 17 20 22 23 24
54 53 53 53 53 53 49 43 42 38 37 47 43 39 34 40 37 21 18 16 31 22 22 22 19 21 22 22 20 19 16 15 17 18 16 17 15 16 17 17 19 20 22 23 24
54 53 52 52 53 49 45 44 42 40 36 33 44 42 40 39 36 28 15 21 29 27 22 20 20 22 21 22 22 20 18 17 18 19 20 18 15 16 19 21 19 21 23 24 25
52 52 52 52 47 45 44 46 45 41 33 33 32 39 38 36 31 33 16 17 25 26 25 23 23 22 21 21 22 19 19 18 17 18 14 16 13 15 15 19 22 21 21 23 27
52 52 51 52 47 44 44 45 41 40 26 35 32 36 35 29 30 29 30 28 23 24 24 22 25 23 22 19 24 19 23 21 22 16 17 16 14 15 22 19 20 22 24 24 23
52 52 51 48 48 46 47 47 41 34 30 29 28 28 32 33 29 29 29 28 28 26 26 25 27 25 22 22 22 22 24 21 20 18 14 15 16 17 17 18 21 21 30 31 35
52 52 50 48 42 46 44 41 31 31 36 29 28 27 28 28 28 26 26 25 24 21 22 24 23 24 24 22 24 21 20 17 16 14 15 19 18 18 20 28 31 31 34 34 35
52 51 49 48 48 45 44 36 29 33 35 37 31 27 26 27 26 24 26 25 28 24 23 23 22 25 27 23 20 18 19 18 15 17 17 23 21 24 31 35 34 35 34 33 32
50 45 46 46 46 45 41 34 34 37 29 27 27 25 26 27 30 27 27 27 28 28 23 31 28 33 32 31 31 27 23 23 23 27 24 24 26 29 35 37 36 34 33 33 34
47 44 43 49 46 45 40 37 40 39 29 30 29 32 32 34 35 34 29 34 34 35 35 34 30 33 33 31 31 30 30 26 28 24 22 27 26 26 35 36 36 36 36 35 35
43 45 48 49 47 42 38 40 41 39 32 33 33 31 32 35 36 35 35 34 35 35 37 34 32 32 32 31 29 29 29 29 29 33 26 23 26 35 35 35 36 38 37 37 37
42 42 47 46 39 41 40 43 44 42 34 33 33 35 35 34 32 32 35 36 36 37 35 37 35 33 32 33 35 31 31 37 33 29 32 27 27 34 35 34 35 35 36 37 37
40 41 47 45 37 39 44 40 44 41 32 32 35 35 36 33 29 33 35 37 36 39 38 37 33 27 23 31 35 35 35 36 39 39 36 34 33 36 37 35 35 33 31 33 35
41 40 43 43 42 39 38 39 38 40 34 32 32 33 31 31 32 31 33 35 37 41 45 39 34 28 23 28 32 31 31 30 33 35 34 34 34 36 36 36 34 36 36 35 35
42 42 40 37 37 37 36 35 31 35 31 31 33 34 31 29 29 31 32 33 40 44 40 36 30 33 33 32 32 30 30 30 29 28 30 28 29 30 34 33 33 33 35 35 36
43 41 41 41 43 38 35 32 32 31 32 32 32 32 31 31 32 30 31 32 32 39 37 38 31 33 32 33 32 30 30 30 29 29 28 28 28 29 29 31 33 35 36 36 36
45 45 41 39 38 40 34 34 33 32 32 31 31 31 34 34 34 33 34 34 33 33 35 35 33 31 27 30 29 24 24 25 27 27 28 26 32 36 35 33 34 35 36 36 36

GFSSW_sfc_dewp_111.txt.gz
Dewpoint
52 53 53 53 54 53 52 52 51 50 51 51 51 51 51 51 51 49 45 38 37 53 53 33 31 26 20 18 18 18 15 14 13 14 14 14 14 16 17 22 29 34 43 43 56
52 52 52 52 52 54 53 52 52 51 51 51 51 51 51 51 48 46 47 51 52 56 32 18 18 24 18 18 18 14 13 13 16 15 15 16 16 16 16 20 24 31 33 34 60
52 52 52 52 51 52 53 53 52 52 52 51 51 51 50 51 43 25 48 53 56 58 31 21 17 26 23 18 16 13 12 14 16 18 19 17 17 16 15 18 23 24 25 23 29
53 52 53 53 52 52 52 52 53 52 52 52 51 50 51 49 2 35 60 55 56 50 35 19 13 12 17 17 16 11 13 13 14 15 16 15 16 16 17 14 21 20 24 24 21
54 54 54 54 53 52 52 52 53 52 51 52 51 50 49 42 30 22 63 60 50 44 26 16 12 15 16 15 15 13 13 12 13 13 14 16 15 15 15 16 17 18 20 20 18
55 55 55 54 54 54 54 53 53 52 51 51 51 50 46 25 12 46 51 50 48 26 20 14 12 19 20 18 13 13 12 12 13 12 14 14 14 15 15 18 18 16 15 16 18
55 55 55 55 54 54 54 53 53 52 52 51 52 49 47 35 36 47 47 45 36 26 22 18 16 22 21 18 16 15 12 13 13 13 12 15 13 14 16 16 16 16 15 16 18
55 54 55 55 54 53 54 53 52 52 52 51 52 49 43 42 43 40 35 29 28 25 27 20 18 21 22 23 19 18 16 13 14 14 13 13 10 15 16 15 16 16 15 17 20
54 53 53 53 53 54 54 53 52 53 53 52 49 47 39 47 44 40 34 30 28 27 26 26 27 26 24 20 18 17 14 14 15 15 14 13 11 14 17 15 16 16 17 18 19
53 52 53 52 52 52 53 51 51 54 52 50 49 44 40 36 39 39 35 34 32 28 30 28 24 22 20 19 17 16 15 15 16 17 15 14 13 16 16 16 16 16 18 20 22
54 52 52 52 52 53 52 45 48 46 48 43 41 39 35 40 37 31 34 33 34 30 26 24 20 19 21 21 20 18 18 16 17 17 17 14 14 15 17 16 14 16 18 21 23
53 52 52 52 52 53 51 43 39 40 38 46 43 40 38 39 37 33 29 27 27 23 22 20 19 21 22 22 20 20 18 17 18 18 15 16 16 16 17 15 15 16 20 22 22
52 52 52 52 51 49 46 44 44 40 35 36 44 42 40 39 37 38 18 21 28 23 20 19 19 22 21 21 22 21 19 18 17 20 20 17 16 15 17 20 22 20 22 23 23
51 51 52 52 47 45 44 46 46 43 33 33 40 40 40 38 35 35 19 19 26 27 22 20 21 21 21 21 21 20 22 21 20 17 13 17 13 16 16 16 19 20 21 22 23
51 51 52 52 46 45 43 46 43 39 26 33 37 39 38 31 30 31 22 21 22 25 25 23 22 22 21 20 21 19 23 22 20 17 16 16 13 15 20 18 17 20 22 25 25
51 51 52 48 48 47 47 46 44 34 28 31 32 33 32 31 29 29 28 27 25 24 26 24 27 25 24 22 21 24 23 20 21 17 13 14 14 15 16 16 20 24 32 35 34
51 51 51 48 43 45 45 41 31 31 34 28 27 30 30 31 29 27 26 24 23 21 22 25 23 24 24 23 25 21 19 16 15 13 14 18 17 18 20 26 30 31 33 34 37
50 50 49 48 48 47 44 35 29 31 34 38 29 28 27 28 27 27 25 24 26 24 23 22 22 24 25 24 22 19 18 17 13 15 15 24 20 21 33 37 36 34 33 35 34
49 45 44 47 48 45 39 32 32 37 38 38 29 26 26 28 26 26 25 24 27 25 22 24 24 33 32 32 30 26 18 19 23 26 24 24 25 27 36 36 37 35 35 34 34
47 43 43 47 47 44 39 34 37 41 40 33 29 31 26 28 34 27 27 33 34 33 33 33 29 33 34 31 31 30 30 26 27 22 21 25 26 24 34 34 35 35 36 36 34
42 41 47 46 46 41 37 39 41 42 41 33 32 32 35 34 35 35 34 35 35 36 36 33 31 30 31 30 29 30 28 30 30 29 24 22 25 31 35 36 35 35 36 36 36
43 36 50 47 39 40 40 42 42 43 43 36 35 36 37 35 32 35 36 36 36 37 34 37 34 31 31 34 35 31 33 34 31 29 29 26 26 34 35 35 35 35 36 35 37
40 40 48 49 37 40 43 40 42 42 40 36 35 35 36 34 32 35 36 37 37 39 37 36 32 25 17 31 32 33 33 37 36 36 34 33 31 36 38 36 36 35 35 33 34
41 39 46 47 46 41 39 39 39 43 38 34 32 32 32 32 32 32 34 38 40 41 43 38 33 25 19 26 31 30 31 30 31 30 33 33 33 35 36 35 34 35 34 36 36
41 42 42 40 42 39 38 36 36 35 36 34 32 33 32 29 29 31 32 34 41 42 40 33 28 31 32 33 32 31 30 29 29 29 29 27 30 32 34 34 32 34 36 36 36
42 42 43 41 43 41 38 32 35 34 33 31 32 34 33 32 31 30 31 31 33 38 36 35 31 31 30 31 31 30 29 30 30 30 30 29 28 30 32 34 35 35 35 35 35
46 46 41 40 39 40 39 35 33 32 31 32 34 34 33 33 33 33 33 33 34 35 34 33 31 28 25 30 27 22 24 25 26 28 28 27 28 36 35 34 35 35 35 35 35

GFSSW_sfc_dewp_114.txt.gz
Dewpoint
52 52 52 53 53 53 54 52 52 52 51 50 51 52 52 51 51 48 45 42 46 50 55 40 29 25 21 19 18 19 15 14 14 14 15 16 15 16 18 20 30 34 44 48 66
53 52 52 53 53 52 53 53 53 52 52 51 50 50 52 51 46 44 46 51 52 53 29 27 25 22 19 17 17 15 14 13 15 15 15 16 17 16 15 21 24 33 31 63 65
53 53 54 54 54 53 52 53 53 52 52 52 51 51 51 48 42 33 50 52 52 54 25 19 25 22 17 19 17 14 12 14 15 17 19 18 16 17 15 16 21 22 22 43 61
54 54 54 54 54 54 54 53 53 52 52 52 52 50 49 46 5 31 56 55 54 52 24 19 15 21 22 17 17 11 14 14 13 15 15 15 18 16 15 15 21 20 25 23 46
55 55 54 54 54 53 53 54 53 52 51 51 50 51 46 41 39 21 60 55 48 45 22 17 13 15 16 19 14 13 14 13 13 12 13 14 14 15 16 17 18 17 20 20 23
54 53 54 54 53 54 54 53 54 53 52 51 51 49 44 33 23 44 57 49 47 34 24 15 13 19 18 16 15 14 14 12 13 12 12 12 12 15 16 19 18 19 17 18 19
55 54 53 53 53 53 54 53 53 53 52 52 52 47 45 39 39 48 49 46 44 25 22 17 15 19 21 16 16 15 14 14 13 13 12 14 12 14 16 17 17 17 17 17 18
54 54 53 52 53 53 53 53 53 53 52 52 53 47 42 44 44 43 42 31 35 26 24 21 16 21 21 22 20 16 15 14 15 14 14 12 11 16 17 17 17 17 16 18 19
53 53 53 52 52 52 53 53 52 54 53 52 49 46 37 45 44 43 34 29 29 27 26 20 19 21 24 21 18 17 15 14 14 15 13 13 12 15 19 16 16 17 17 18 18
53 53 52 52 52 52 53 53 51 53 51 49 48 44 40 34 42 38 35 28 27 26 25 24 25 23 21 19 13 17 15 15 14 17 14 15 13 16 18 17 18 19 19 20 21
53 52 52 52 51 53 52 45 47 46 48 41 39 38 34 38 37 36 35 33 32 29 26 26 22 21 21 21 20 18 16 17 18 17 16 15 15 16 17 18 16 17 18 19 22
52 52 51 53 51 52 51 44 41 40 39 46 44 41 40 39 35 34 33 30 30 25 23 21 20 21 23 21 21 20 19 18 18 19 16 17 16 17 18 18 17 17 18 19 24
51 52 52 52 51 48 46 44 45 43 34 35 44 41 41 40 37 36 30 26 26 24 20 19 19 23 21 21 21 21 19 19 17 21 18 17 16 18 18 18 20 22 23 24 24
51 50 52 52 46 45 44 45 46 45 32 32 41 40 40 38 35 38 26 25 28 22 20 19 20 20 20 19 20 18 22 22 22 19 16 17 13 16 19 17 19 20 21 22 24
50 50 52 52 47 44 44 47 44 40 26 33 39 40 39 33 33 31 18 16 24 27 23 21 22 21 21 21 22 20 23 23 23 19 16 16 13 15 22 20 18 19 23 31 34
49 50 51 48 48 47 47 46 44 33 27 33 36 35 34 30 32 30 21 23 26 25 26 25 26 24 23 23 21 22 20 20 20 17 14 15 14 14 16 17 23 28 30 35 35
49 49 49 47 43 46 47 42 33 30 33 30 30 33 30 29 28 28 23 21 22 21 22 24 24 25 25 23 24 21 19 16 15 14 14 18 15 16 22 24 30 32 33 34 36
48 48 48 47 48 46 44 35 29 30 30 41 29 32 28 29 28 27 25 23 25 23 25 22 21 23 25 22 21 21 20 16 12 14 14 22 19 19 31 37 37 36 36 35 35
49 46 44 45 48 47 40 33 31 33 41 40 31 28 26 28 27 26 25 23 25 25 23 24 27 31 31 29 26 23 18 19 20 26 22 21 25 26 36 37 37 36 36 35 34
46 43 43 45 47 43 38 34 35 39 42 39 35 29 26 30 30 25 26 31 34 30 30 32 29 34 34 31 31 27 27 25 26 23 21 23 26 23 34 34 35 35 35 35 35
46 39 43 48 45 41 36 36 35 41 43 40 39 37 32 33 34 33 30 34 35 36 33 33 30 31 31 30 30 29 28 30 29 26 22 22 24 31 34 34 34 35 36 37 37
44 35 48 46 39 39 37 41 38 41 46 41 39 40 38 36 34 36 35 35 37 36 34 36 31 29 31 32 36 33 34 32 29 27 27 26 25 33 35 36 36 34 35 36 35
39 39 46 52 38 38 41 39 39 41 42 39 41 39 37 37 35 37 36 37 38 39 36 35 31 24 17 29 32 32 33 36 34 32 30 30 28 36 37 37 38 35 35 35 36
41 35 45 48 46 42 40 39 39 45 43 42 35 34 35 34 37 36 37 42 42 42 44 40 33 25 22 20 31 30 31 31 30 28 29 31 31 34 36 35 34 33 35 36 37
41 40 43 40 42 42 42 39 39 39 41 44 37 33 31 31 32 33 34 39 39 42 39 32 29 30 31 32 32 30 30 30 28 29 26 26 32 33 34 33 32 36 36 35 35
41 42 43 42 43 42 40 37 37 35 33 33 34 34 32 31 31 30 31 34 36 38 37 35 31 30 28 31 31 30 30 30 30 30 30 30 29 31 31 33 35 35 35 35 36
44 48 43 41 40 40 40 38 37 39 36 37 35 33 32 33 33 33 33 33 36 36 34 32 32 28 25 29 26 22 25 27 26 28 28 26 28 33 34 35 35 35 35 36 36

GFSSW_sfc_dewp_117.txt.gz
Dewpoint
53 53 53 53 54 54 53 53 52 52 52 51 50 50 52 52 52 48 45 43 45 52 51 40 29 23 20 20 17 19 28 21 12 15 14 16 16 17 18 17 29 37 41 51 67
54 53 54 54 53 54 54 53 53 52 52 52 51 51 49 52 46 43 46 51 52 52 39 28 21 20 22 17 17 23 30 30 18 15 14 16 16 17 16 18 31 35 60 64 66
54 53 53 54 54 54 54 53 53 52 53 52 52 51 51 48 40 32 47 53 53 52 29 28 23 27 25 17 16 18 23 26 16 16 17 16 14 16 17 18 23 33 57 64 64
55 54 55 55 54 54 53 53 54 53 52 52 52 52 50 44 4 28 54 52 53 48 25 20 23 30 36 26 17 13 16 16 14 14 18 15 15 13 15 17 18 20 33 61 63
54 53 54 54 54 54 54 53 53 53 53 52 52 51 46 41 35 30 48 56 47 46 22 21 22 31 35 33 27 24 13 14 21 13 12 12 12 12 14 18 18 20 22 35 59
54 54 53 53 53 53 54 54 53 52 53 53 52 51 44 31 27 46 55 50 43 33 20 18 21 23 29 25 27 21 24 17 13 13 14 12 12 16 15 19 20 22 21 23 29
54 54 53 53 53 53 54 54 53 52 53 53 52 47 43 36 35 41 50 45 44 24 17 17 17 21 21 18 18 16 14 14 13 13 13 15 13 15 17 17 19 22 24 23 25
55 54 54 53 53 53 53 53 52 53 53 53 53 47 42 43 45 43 46 44 43 23 17 17 18 19 23 21 17 14 13 12 16 16 15 14 11 15 19 21 20 21 21 23 26
54 54 54 53 52 52 53 53 52 54 52 53 50 45 40 44 42 41 39 37 32 23 24 19 17 18 25 21 19 19 10 15 16 16 15 15 12 17 18 21 22 23 23 22 24
54 53 53 53 53 53 53 52 51 53 51 49 47 44 42 31 39 41 36 30 23 24 23 21 19 15 22 21 14 17 15 16 14 17 15 14 14 19 21 20 23 25 25 26 26
52 53 52 53 53 52 51 46 45 46 47 41 40 38 31 34 40 36 30 27 26 23 18 22 14 12 16 23 18 18 17 16 18 18 17 18 18 19 23 21 22 24 26 28 29
52 52 51 52 52 52 50 44 42 42 39 44 42 42 39 39 34 33 32 29 24 17 24 21 14 20 24 23 20 19 19 19 20 20 20 20 20 22 23 23 23 24 26 28 28
50 51 51 52 52 50 46 44 45 45 38 35 42 41 38 38 34 32 30 31 22 18 24 17 17 25 23 22 22 21 20 21 18 21 21 21 19 21 21 21 23 25 27 28 28
50 50 51 52 48 46 43 45 46 46 34 32 39 39 38 39 37 36 31 29 25 25 24 22 21 23 22 21 22 21 22 21 22 21 14 20 10 21 22 22 24 25 25 31 35
50 50 50 51 47 43 43 47 46 44 27 32 39 40 39 35 33 30 30 25 23 24 24 21 20 21 21 20 21 17 23 23 23 23 21 18 15 17 21 20 22 25 30 35 39
49 49 50 46 48 46 46 47 45 34 27 32 36 37 35 33 31 23 25 22 29 26 26 23 25 22 20 22 22 24 22 23 22 20 16 19 17 15 18 21 22 28 34 38 38
46 49 47 46 42 45 46 43 34 32 31 32 33 35 32 33 37 26 23 23 21 23 24 25 24 25 25 22 24 24 24 17 16 15 12 20 17 17 23 25 32 37 37 38 39
48 49 46 45 47 47 44 38 33 31 29 38 31 33 29 32 33 37 22 21 23 23 24 22 21 25 25 23 22 24 23 15 13 14 12 22 17 19 32 37 36 36 37 38 38
48 43 43 45 47 46 41 36 33 32 34 38 35 30 28 29 32 36 35 21 20 26 24 23 22 28 28 24 24 23 22 23 22 25 20 18 24 28 36 36 37 37 38 38 39
45 41 41 46 47 44 38 35 35 34 39 41 36 31 27 28 26 28 32 27 25 25 31 29 27 30 32 30 30 25 25 23 24 21 18 20 24 19 35 36 37 38 39 40 39
43 39 42 48 46 42 37 36 35 36 42 43 41 36 30 28 28 26 26 32 30 31 35 34 33 32 33 32 29 28 26 30 27 28 24 21 21 34 36 36 37 35 35 35 36
43 33 48 50 40 39 37 38 38 35 44 45 43 40 39 32 29 32 31 34 36 33 29 36 34 30 29 34 36 34 32 33 33 31 32 32 27 34 37 38 38 36 34 34 37
39 38 43 49 39 40 40 38 37 37 43 42 41 42 43 36 36 37 37 39 38 36 35 37 34 28 28 32 34 32 36 36 37 37 34 32 29 37 38 39 37 35 34 35 39
41 35 44 47 47 43 39 38 37 39 43 45 40 43 41 38 39 35 38 41 41 41 44 42 34 30 28 28 33 31 33 35 35 35 28 30 29 35 37 37 35 35 36 37 38
42 38 43 37 40 38 42 39 37 38 44 44 39 38 39 36 38 37 39 37 39 41 37 40 37 35 32 32 32 31 30 30 30 30 28 24 30 32 33 32 31 35 37 36 36
40 40 42 41 40 38 40 38 38 35 40 40 38 40 39 37 37 37 38 38 36 38 37 38 35 33 30 31 31 29 29 30 29 29 29 29 29 31 32 33 33 35 36 35 35
43 46 43 38 38 36 38 37 37 38 37 38 38 36 33 33 34 35 37 39 40 38 37 37 36 32 26 29 26 21 23 25 28 30 28 25 25 31 33 35 37 37 36 36 36

GFSSW_sfc_dewp_123.txt.gz
Dewpoint
56 55 55 55 55 55 55 55 55 55 53 53 53 53 53 52 52 46 41 39 43 53 49 31 31 34 32 29 25 25 23 27 28 30 32 35 31 31 27 24 28 32 45 58 63
55 55 55 55 55 56 55 55 55 55 55 54 53 53 53 52 46 38 44 55 54 49 35 27 26 29 31 30 27 26 26 29 29 28 27 30 26 30 27 24 28 35 46 60 62
54 54 55 54 54 55 55 55 55 55 55 55 53 53 53 50 40 27 55 55 56 51 31 24 22 26 28 29 29 27 29 31 33 32 28 25 24 24 25 28 29 33 41 55 59
53 53 53 54 54 54 54 54 54 54 55 54 54 53 52 45 23 31 54 58 56 42 34 27 23 23 24 26 30 30 32 35 34 38 35 30 28 27 25 28 28 30 37 50 56
54 54 54 54 54 54 54 54 54 54 54 54 54 53 49 41 34 30 52 55 45 42 32 25 22 21 21 23 27 35 33 32 35 36 34 34 34 27 24 23 23 26 28 46 53
55 55 55 54 54 54 55 54 54 54 53 53 54 54 46 39 35 29 27 34 43 39 29 20 22 18 18 20 26 39 36 39 40 33 32 35 39 41 31 30 26 25 26 31 52
55 55 54 54 54 53 54 54 54 53 52 52 54 52 46 42 33 23 32 37 37 34 26 19 20 19 17 18 28 39 36 39 39 33 36 40 40 42 38 27 30 27 27 30 34
54 54 54 53 52 52 53 53 53 53 52 53 55 51 44 42 42 39 29 32 39 32 24 18 20 19 18 18 23 36 40 36 36 36 42 45 39 40 42 37 34 25 25 29 30
53 53 52 51 52 52 53 53 52 52 53 54 53 48 40 46 40 36 32 28 38 31 24 21 19 18 17 16 22 34 41 38 33 41 43 46 42 42 44 43 38 27 25 28 29
53 53 52 51 51 52 52 52 52 51 52 51 48 44 41 37 35 32 33 29 36 31 24 17 15 14 14 14 18 35 35 31 29 34 39 42 41 43 41 42 42 35 24 28 30
53 52 52 52 51 51 49 46 41 47 48 40 40 37 32 38 30 30 31 33 35 28 17 14 12 13 14 18 17 22 18 24 24 23 29 28 35 35 40 37 37 32 26 27 30
53 51 50 51 50 50 47 44 39 37 36 44 41 38 38 35 32 29 31 33 30 18 15 13 12 13 12 15 15 14 11 11 14 14 18 20 22 24 27 31 36 32 27 28 28
52 51 49 50 49 46 43 41 41 44 41 37 37 40 34 37 34 28 29 29 23 18 15 12 10 11 10 11 11 12 13 13 14 15 18 19 18 21 20 23 25 25 27 26 26
51 51 51 49 44 43 41 42 44 44 38 35 33 34 37 35 34 31 28 24 20 17 15 11 8 8 8 9 10 13 14 14 14 16 15 19 14 22 21 22 24 25 22 24 26
49 50 50 50 42 37 36 39 46 46 24 22 27 33 34 33 30 30 25 21 19 15 16 11 10 9 10 10 11 13 16 16 16 17 19 15 12 13 21 20 23 25 25 25 28
49 49 49 43 42 41 40 39 45 37 28 22 30 30 30 32 31 30 25 21 21 15 15 13 14 10 10 10 12 17 16 19 20 18 15 16 15 13 15 20 23 26 24 26 32
49 48 46 39 37 36 37 41 35 31 23 19 30 31 29 31 32 29 26 23 20 16 15 14 14 11 11 16 17 17 22 18 15 12 12 16 14 16 20 21 21 22 25 33 35
48 47 43 40 41 39 37 40 29 23 24 32 28 29 29 31 32 29 23 22 24 17 12 12 15 14 16 17 17 19 21 14 14 13 9 14 14 13 21 25 30 28 33 34 33
47 39 38 37 39 40 42 32 25 25 29 23 34 28 32 31 33 31 25 21 23 23 17 14 17 16 17 17 18 19 18 19 18 17 14 14 25 28 26 29 28 32 35 37 39
42 40 40 45 48 45 37 28 27 25 33 38 35 35 34 39 32 31 26 23 22 22 25 21 19 17 17 17 17 19 18 18 17 20 15 15 20 19 28 27 28 34 38 38 38
42 33 47 48 48 41 32 27 23 22 36 41 36 36 35 37 36 29 26 23 21 20 23 24 24 20 20 18 16 17 18 19 21 19 21 17 15 31 31 31 34 35 37 37 37
37 32 48 48 39 38 33 26 27 22 26 35 41 40 42 36 36 33 32 33 28 21 22 28 27 21 20 20 20 20 23 23 22 24 20 22 31 29 34 34 38 36 36 37 38
38 34 48 48 36 36 38 36 35 25 25 42 40 42 43 39 39 37 37 35 31 27 27 33 33 32 27 30 28 27 22 24 26 29 28 25 30 35 35 36 37 36 37 38 39
42 37 43 43 42 36 37 35 35 33 26 41 43 42 40 37 40 39 36 37 29 26 46 40 37 35 29 28 28 28 25 22 26 30 26 28 35 36 36 37 37 38 38 37 39
43 38 40 36 37 40 39 38 37 37 42 42 41 40 39 37 41 41 39 33 28 39 35 39 37 39 37 37 29 24 27 26 33 35 29 30 33 36 39 36 37 38 36 36 36
40 39 40 38 40 39 38 37 36 40 40 38 39 39 38 36 42 39 37 34 34 35 37 42 37 38 32 34 30 31 30 30 29 29 29 25 23 27 30 32 33 31 31 32 34
41 42 41 37 40 36 35 36 39 40 41 40 41 39 36 37 45 46 43 41 38 35 37 38 37 39 32 30 29 27 28 28 29 29 26 21 22 23 26 27 31 34 34 34 37